Regional Weather Roundup
Issued by NWS

Home | Current Version | Previous Version | Text Only | Print | Product List | Glossary On
Versions: 1 2 3 4 5 6 7 8 9 10 11 12 13 14 15 16 17 18 19 20 21 22 23 24 25 26 27 28 29 30 31 32 33 34 35 36 37 38 39 40 41 42 43 44 45 46 47 48 49 50
000
ASUS44 KFWD 271615
RWRTX
NORTH TEXAS HOURLY WEATHER ROUNDUP
NATIONAL WEATHER SERVICE FORT WORTH TX
1100 AM CDT WED JUL 27 2016

NOTE: "FAIR" INDICATES FEW OR NO CLOUDS BELOW 12,000 FEET WITH NO
SIGNIFICANT WEATHER AND/OR OBSTRUCTIONS TO VISIBILITY.

TXZ118-119-271700-
DALLAS/FORT WORTH METROPLEX

CITY           SKY/WX    TMP DP  RH WIND       PRES   REMARKS
DFW AIRPORT    MOSUNNY   91  71  51 W6        29.96R HX  97
DALLAS LOVE    MOSUNNY   91  73  55 SW6       29.96R HX  99
FTW MEACHAM    MOSUNNY   92  71  50 W6        29.96S HX  98
DAL-EXECUTIVE  MOSUNNY   89  72  56 VRB6      29.97R HX  96
FTW-ALLIANCE   MOSUNNY   88  71  57 CALM      29.97R HX  94
FTW-NAS-JRB    MOSUNNY   91  70  49 N6        29.97R HX  96
FTW-SPINKS     MOSUNNY   88  73  62 CALM      29.99R HX  96
ARLINGTON      SUNNY     89  72  56 CALM      29.97R HX  96
GRAND PRAIRIE  SUNNY     88  72  58 S5        29.98S HX  94
ADDISON        MOSUNNY   90  72  55 S5        29.97R HX  96
MESQUITE       SUNNY     88  75  66 S6        29.97R HX  97
LANCASTER      SUNNY     90  70  52 CALM      29.98R HX  95
$$

TXZ091>094-102>105-117-120-121-131>134-271700-
NORTH CENTRAL TEXAS

CITY           SKY/WX    TMP DP  RH WIND       PRES   REMARKS
SHRMAN/DENISON CLOUDY    83  75  76 N5        30.00R HX  91
GAINESVILLE    CLOUDY    86  73  64 CALM      29.99S HX  93
BOWIE          PTSUNNY   89  72  56 W3        29.99S HX  96
BRIDGEPORT     MOSUNNY   89  72  57 N6        29.99S HX  96
DECATUR        SUNNY     88  71  56 W3        29.99S HX  94
DENTON         CLOUDY    87  73  62 W3        29.97R HX  94
MCKINNEY       MOSUNNY   89  73  59 NW5       29.97R HX  97
GREENVILLE     SUNNY     90  70  51 SW3       29.97R HX  95
ROCKWALL       SUNNY     89  73  59 N7        29.96R HX  96
TERRELL        SUNNY     89  73  59 S6        29.98R HX  97
WAXAHACHIE     SUNNY     87  73  62 S3        29.99R HX  94
CLEBURNE       SUNNY     88  75  66 CALM      30.00S HX  97
GRANBURY       SUNNY     92  71  50 E3        29.99S HX  98
$$

TXZ083>090-098>101-113>116-127>130-139>142-154-155-271700-
WESTERN NORTH TEXAS

CITY           SKY/WX    TMP DP  RH WIND       PRES   REMARKS
WICHITA FALLS  CLOUDY    87  73  62 NW3       29.98S HX  94
WF-KICKAPOO    CLOUDY    83  72  69 CALM      29.99S
VERNON         MOSUNNY   88  67  48 E3        29.99S HX  91
ABILENE        SUNNY     90  66  45 CALM      30.02F HX  92
ABILENE-DYESS  SUNNY     91  68  46 E6        30.01S HX  94
CISCO          SUNNY     88  68  51 S5        30.03R HX  91
BRECKENRIDGE   PTSUNNY   91  65  42 CALM      29.99R HX  92
GRAHAM         MOSUNNY   92  69  47 W3        29.98S HX  97
MINERAL WELLS  PTSUNNY   90  71  53 W6        29.97S HX  96
STEPHENVILLE   SUNNY     87  69  55 CALM      30.03R HX  91
COMANCHE       CLOUDY    83  70  64 CALM      30.03R
BROWNWOOD      LGT RAIN N/A N/A N/A MISG        N/A
COLEMAN        SUNNY     87  66  50 CALM      30.03S
$$

TXZ143>147-156>162-174-175-271700-
CENTRAL TEXAS

CITY           SKY/WX    TMP DP  RH WIND       PRES   REMARKS
WACO           MOSUNNY   89  69  51 VRB5      29.97F HX  93
WACO-TSTC      SUNNY     88  72  58 SW6       29.98S HX  94
WACO-MCGREGOR  MOSUNNY   90  71  53 S5          N/A  HX  96
HILLSBORO      SUNNY     86  71  60 W5        29.99R HX  91
CORSICANA      SUNNY     87  72  60 SW6       29.99S HX  93
MEXIA          MOSUNNY   85  74  68 SW9       29.99R HX  93
HEARNE         SUNNY     86  75  68 CALM      29.99F HX  95
CAMERON        MOSUNNY   89  74  61 S7        29.98S HX  97
TEMPLE         MOSUNNY   86  74  67 VRB6      30.00F HX  94
KILLEEN        PTSUNNY   86  72  62 S9        30.00R HX  92
KILLEEN-SKYLRK   N/A     83  74  74 S9        30.00
FORT HOOD      MOSUNNY   84  72  65 S8        29.98S
GATESVILLE     MOSUNNY   88  72  58 CALM      30.01F HX  94
HAMILTON       SUNNY     88  67  49 SW6       30.02S HX  91
LAMPASAS       MOSUNNY   87  74  65 W6        30.00S HX  96
$$

TXZ095>097-106>112-122>126-135>138-148>153-164>167-271700-
EAST TEXAS

CITY           SKY/WX    TMP DP  RH WIND       PRES   REMARKS
PARIS          SUNNY     90  70  51 W6        29.98R HX  95
SULPHUR SPRNGS SUNNY     89  73  58 NW5       29.99R HX  96
MOUNT PLEASANT SUNNY     90  70  51 SW3       29.98R HX  95
GILMER         SUNNY     87  73  61 CALM      29.98R HX  95
MINEOLA        SUNNY     90  73  58 CALM      29.98R HX  98
TYLER          MOSUNNY   86  73  65 VRB5      29.99R HX  93
LONGVIEW       MOSUNNY   89  75  63 W7        29.98R HX  99
MARSHALL       SUNNY     87  74  64 SW7       30.00R HX  95
ATHENS         MOSUNNY   84  72  65 SW3       29.98S
PALESTINE      MOSUNNY   85  76  72 S7        30.01R HX  95
JACKSONVILLE   MOSUNNY   86  74  66 S7        30.03R HX  93
HENDERSON      SUNNY     85  73  66 SW3       30.00R HX  92
CENTER         PTSUNNY   86  77  73 S7        30.01R HX  97
NACOGDOCHES    MOSUNNY  N/A N/A N/A SW9       29.98S
LUFKIN         MOSUNNY   86  75  69 VRB5      30.00R HX  95
$$

SUPPLEMENTAL OBSERVATIONS (CENTRAL)

CITY           SKY/WX    TMP DP  RH WIND       PRES   REMARKS
CADDO GRASSLND   N/A     91  73  55 NW3         N/A  HX 100
PAT MAYSE LAKE   N/A     88  77  70 S7          N/A  HX 100
GREENVILLE       N/A     91  72  52 SW5         N/A  HX  98
CEDAR HILL       N/A     91  73  55 W3          N/A  HX 100
LAKE LIMESTONE   N/A     90  73  58 SW7         N/A  HX  98
MCGREGOR         N/A     88  73  62 W3          N/A  HX  96
TEMPLE           N/A     88  73  62 SW3         N/A  HX  96
$$

SUPPLEMENTAL OBSERVATIONS (WEST)

CITY           SKY/WX    TMP DP  RH WIND       PRES   REMARKS
MILLERS CREEK    N/A     93  70  46 S6          N/A  HX  99
POSSUM KINGDOM   N/A     93  68  43 S6          N/A  HX  97
LBJ GRASSLAND    N/A     90  73  58 W5          N/A  HX  98
GRANBURY         N/A     93  73  52 E6          N/A  HX 102
COMANCHE         N/A     88  72  58 W2          N/A  HX  94
HAMBY            N/A     90  66  45 E5          N/A  HX  92
IVIE RESERVOIR   N/A     88  68  51 CALM        N/A  HX  91
COLORADO BEND    N/A     88  70  55 W5          N/A  HX  92
$$

SUPPLEMENTAL OBSERVATIONS (EAST)

CITY           SKY/WX    TMP DP  RH WIND       PRES   REMARKS
CLARKSVILLE      N/A     93  72  49 NW3         N/A  HX 100
TEXARKANA        N/A     91  73  55 SW2         N/A  HX 100
LINDEN           N/A     93  72  49 SW2         N/A  HX 100
GILMER           N/A     91  73  55 W3          N/A  HX 100
HENDERSON        N/A     88  73  62 SW6         N/A  HX  96
LUFKIN           N/A     90  81  74 MISG        N/A  HX 108
N SABINE NF      N/A     88  75  66 MISG        N/A  HX  97
S SABINE NF      N/A     84  75  74 SE2         N/A  HX  92
$$

SUPPLEMENTAL OBSERVATIONS ARE A COLLECTION OF AUTOMATED INSTRUMENTS
THAT ARE MAINTAINED BY A VARIETY OF FEDERAL AND STATE AGENCIES.
CERTAIN ELEMENTS...SUCH AS HUMIDITY VALUES AND SUSTAINED WIND
SPEEDS...MAY BE APPROXIMATED.





USA.gov is the U.S. government's official web portal to all federal, state and local government web resources and services.